Weather History for Big Bear City, CA

Change the Weather History Date:

Wednesday, May 8, 2013

  Actual Average (KBUO) Record (KBUO)
Temperature  
Mean Temperature 40 °F -  
Max Temperature 51 °F 73 °F 95 °F (2001)
Min Temperature 30 °F 49 °F 48 °F (1998)
Degree Days  
Heating Degree Days 24    
Moisture  
Dew Point 32 °F    
Average Humidity 69    
Maximum Humidity 93    
Minimum Humidity 41    
Precipitation  
Precipitation 0.00 in - - ()
Sea Level Pressure  
Sea Level Pressure 30.10 in    
Wind  
Wind Speed 5 mph (West)    
Max Wind Speed 12 mph    
Max Gust Speed 21 mph    
Visibility 9 miles    
Events      
Averages and records for this station are not official NWS values.
T = Trace of Precipitation, MM = Missing Value Source: NWS Daily Summary

Daily Weather History Graph

Daily Weather History Graph

Search for Another Location

Airport:

Trip Planner

Search our weather history database for the weather conditions in past years. The results will help you decide how hot, cold, wet, or windy it might be!

Date:

Astronomy

May. 08, 2013 Rise Set
Actual Time 5:50 AM PDT 7:37 PM PDT
Civil Twilight 5:23 AM PDT 8:04 PM PDT
Nautical Twilight 4:50 AM PDT 8:37 PM PDT
Astronomical Twilight 4:15 AM PDT 9:12 PM PDT
Moon 4:58 AM PDT (5/8) 6:41 PM PDT (5/8)
Length of Visible Light 14h 41m
Length of Day
13h 46m
Waning Crescent, 1% of the Moon is Illuminated
May 8
Waning Crescent
May 9
New
May 17
First Quarter
May 24
Full
May 31
Last Quarter

Hourly Weather History & Observations

Time (PDT) Temp. Windchill Dew Point Humidity Pressure Visibility Wind Dir Wind Speed Gust Speed Precip Events Conditions
12:15 AM 35.6 °F 28.6 °F 30.2 °F 81% 30.08 in 10.0 mi West 9.2 mph - N/A   Clear
12:35 AM 35.6 °F 29.2 °F 30.2 °F 81% 30.09 in 10.0 mi West 8.1 mph - N/A   Clear
12:55 AM 35.6 °F 30.7 °F 30.2 °F 81% 30.08 in 10.0 mi WSW 5.8 mph - N/A   Scattered Clouds
1:15 AM 35.6 °F - 30.2 °F 81% 30.08 in 10.0 mi Calm Calm - N/A   Mostly Cloudy
1:35 AM 35.6 °F 31.7 °F 30.2 °F 81% 30.08 in 10.0 mi SW 4.6 mph - N/A   Overcast
1:55 AM 35.6 °F 32.8 °F 30.2 °F 81% 30.08 in 10.0 mi SSW 3.5 mph - N/A   Mostly Cloudy
2:15 AM 33.8 °F 30.8 °F 28.4 °F 81% 30.07 in 10.0 mi WSW 3.5 mph - N/A   Scattered Clouds
2:35 AM 33.8 °F - 30.2 °F 87% 30.07 in 10.0 mi Calm Calm - N/A   Clear
2:55 AM 32.0 °F - 28.4 °F 87% 30.07 in 10.0 mi Calm Calm - N/A   Clear
3:15 AM 32.0 °F 27.5 °F 26.6 °F 80% 30.07 in 10.0 mi SSW 4.6 mph - N/A   Clear
3:35 AM 30.2 °F 26.7 °F 26.6 °F 86% 30.08 in 10.0 mi SSW 3.5 mph - N/A   Clear
3:55 AM 32.0 °F - 28.4 °F 87% 30.07 in 10.0 mi Calm Calm - N/A   Scattered Clouds
4:15 AM 32.0 °F - 30.2 °F 93% 30.07 in 10.0 mi Calm Calm - N/A   Overcast
4:35 AM 32.0 °F 28.7 °F 30.2 °F 93% 30.07 in 10.0 mi SSW 3.5 mph - N/A   Overcast
4:55 AM 32.0 °F - 30.2 °F 93% 30.07 in 10.0 mi Calm Calm - N/A   Overcast
5:15 AM 33.8 °F 26.4 °F 32.0 °F 93% 30.07 in 10.0 mi West 9.2 mph - N/A   Overcast
5:35 AM 33.8 °F 26.4 °F 30.2 °F 87% 30.08 in 10.0 mi West 9.2 mph - N/A   Overcast
5:55 AM 33.8 °F 30.8 °F 30.2 °F 87% 30.08 in 10.0 mi SSW 3.5 mph - N/A   Overcast
6:15 AM 32.0 °F - 28.4 °F 87% 30.08 in 10.0 mi Calm Calm - N/A   Overcast
6:35 AM 32.0 °F - 30.2 °F 93% 30.09 in 10.0 mi Calm Calm - N/A   Overcast
6:55 AM 33.8 °F 29.6 °F 30.2 °F 87% 30.09 in 10.0 mi SW 4.6 mph - N/A   Overcast
7:15 AM 33.8 °F - 30.2 °F 87% 30.09 in 10.0 mi Calm Calm - N/A   Mostly Cloudy
7:35 AM 35.6 °F - 32.0 °F 87% 30.10 in 10.0 mi Calm Calm - N/A   Scattered Clouds
7:55 AM 37.4 °F 34.9 °F 32.0 °F 81% 30.10 in 10.0 mi West 3.5 mph - N/A   Clear
8:15 AM 41.0 °F 39.0 °F 30.2 °F 65% 30.10 in 10.0 mi WSW 3.5 mph - N/A   Clear
8:35 AM 42.8 °F - 30.2 °F 61% 30.10 in 10.0 mi Calm Calm - N/A   Clear
8:55 AM 44.6 °F 43.1 °F 28.4 °F 53% 30.11 in 10.0 mi East 3.5 mph - N/A   Clear
9:15 AM 46.4 °F 44.3 °F 28.4 °F 50% 30.11 in 10.0 mi ENE 4.6 mph - N/A   Clear
9:35 AM 46.4 °F - 26.6 °F 46% 30.11 in 10.0 mi Calm Calm - N/A   Clear
9:55 AM 48.2 °F - 26.6 °F 43% 30.11 in 10.0 mi East 5.8 mph - N/A   Clear
10:15 AM 50.0 °F - 28.4 °F 43% 30.11 in 10.0 mi ENE 9.2 mph - N/A   Clear
10:35 AM 51.8 °F - 28.4 °F 41% 30.11 in 10.0 mi ESE 9.2 mph - N/A   Clear
10:55 AM 51.8 °F - 30.2 °F 44% 30.12 in 10.0 mi East 11.5 mph - N/A   Clear
11:15 AM 51.8 °F - 30.2 °F 44% 30.12 in 10.0 mi ENE 11.5 mph - N/A   Clear
11:35 AM 51.8 °F - 30.2 °F 44% 30.12 in 10.0 mi ENE 10.4 mph - N/A   Clear
11:55 AM 51.8 °F - 30.2 °F 44% 30.12 in 10.0 mi ENE 9.2 mph - N/A   Clear
12:15 PM 51.8 °F - 30.2 °F 44% 30.12 in 10.0 mi East 10.4 mph 19.6 mph N/A   Clear
12:35 PM 51.8 °F - 30.2 °F 44% 30.12 in 10.0 mi ESE 10.4 mph 20.7 mph N/A   Scattered Clouds
12:55 PM 51.8 °F - 32.0 °F 47% 30.12 in 10.0 mi NNE 6.9 mph - N/A   Mostly Cloudy
1:15 PM 50.0 °F - 30.2 °F 47% 30.12 in 10.0 mi North 3.5 mph - N/A   Overcast
1:35 PM 51.8 °F - 30.2 °F 44% 30.12 in 10.0 mi NNE 4.6 mph - N/A   Overcast
1:55 PM 51.8 °F - 32.0 °F 47% 30.12 in 10.0 mi WNW 8.1 mph - N/A   Mostly Cloudy
2:15 PM 51.8 °F - 32.0 °F 47% 30.12 in 10.0 mi East 9.2 mph - N/A   Mostly Cloudy
2:35 PM 51.8 °F - 32.0 °F 47% 30.12 in 10.0 mi ENE 8.1 mph - N/A   Overcast
2:55 PM 51.8 °F - 32.0 °F 47% 30.12 in 10.0 mi NNE 4.6 mph - N/A   Overcast
3:15 PM 51.8 °F - 32.0 °F 47% 30.12 in 10.0 mi North 5.8 mph - N/A   Mostly Cloudy
3:35 PM 50.0 °F - 32.0 °F 50% 30.11 in 10.0 mi NNE 6.9 mph - N/A   Overcast
3:55 PM 51.8 °F - 32.0 °F 47% 30.11 in 10.0 mi NE 4.6 mph - N/A   Overcast
4:15 PM 51.8 °F - 30.2 °F 44% 30.11 in 10.0 mi Calm Calm - N/A   Overcast
4:35 PM 51.8 °F - 32.0 °F 47% 30.11 in 10.0 mi WSW 4.6 mph - N/A   Overcast
4:55 PM 46.4 °F 42.4 °F 37.4 °F 71% 30.11 in 10.0 mi West 8.1 mph - N/A   Overcast
5:15 PM 48.2 °F - 37.4 °F 66% 30.11 in 10.0 mi West 10.4 mph - N/A   Mostly Cloudy
5:35 PM 46.4 °F 41.1 °F 37.4 °F 71% 30.11 in 10.0 mi West 11.5 mph - N/A   Mostly Cloudy
5:55 PM 46.4 °F 42.9 °F 37.4 °F 71% 30.11 in 7.0 mi West 6.9 mph - N/A   Mostly Cloudy
6:15 PM 44.6 °F 38.8 °F 37.4 °F 76% 30.11 in 7.0 mi West 11.5 mph - N/A   Mostly Cloudy
6:35 PM 44.6 °F 39.7 °F 37.4 °F 76% 30.12 in 7.0 mi West 9.2 mph - N/A   Overcast
6:55 PM 44.6 °F 39.7 °F 37.4 °F 76% 30.12 in 7.0 mi West 9.2 mph - N/A   Mostly Cloudy
7:15 PM 42.8 °F 40.1 °F 37.4 °F 81% 30.12 in 7.0 mi WSW 4.6 mph - N/A   Mostly Cloudy
7:35 PM 42.8 °F 41.1 °F 37.4 °F 81% 30.12 in 7.0 mi SW 3.5 mph - N/A   Scattered Clouds
8:15 PM 41.0 °F 38.0 °F 35.6 °F 81% 30.12 in 7.0 mi West 4.6 mph - N/A   Clear
8:35 PM 41.0 °F 39.0 °F 35.6 °F 81% 30.12 in 5.0 mi West 3.5 mph - N/A   Clear
8:55 PM 41.0 °F 39.0 °F 35.6 °F 81% 30.13 in 5.0 mi West 3.5 mph - N/A   Scattered Clouds
9:15 PM 41.0 °F 39.0 °F 35.6 °F 81% 30.14 in 5.0 mi West 3.5 mph - N/A   Overcast
9:55 PM 39.2 °F - 35.6 °F 87% 30.16 in 5.0 mi Calm Calm - N/A   Clear
11:15 PM 33.8 °F - 32.0 °F 93% 30.16 in 7.0 mi Calm Calm - N/A   Clear